Asturias, Spain

2:09 PM CEST en Mayo 20, 2018 (GMT +0200)
Asturias

Tiempo Historia de LEAS - Mayo, 2018

Change the Weather History Date:

Jueves, Mayo 17, 2018

  Actual Average Record
Temperature  
Temperatura media 56 ° F -  
Temperatura máxima 63 ° F 64 ° F 77 ° F (2006)
Temperatura mínima 50 ° F 53 ° F 46 ° F (2013)
Degree Days  
Grados día de calefacción 8    
Growing Degree Days 6 (Base 50)    
Moisture  
Punto de rocío 53 ° F    
Average Humidity 85    
Maximum Humidity 100    
Minimum Humidity 65    
Precipitación  
Precipitación 0.00 pul - - ()
Presión al nivel del mar  
Presión al nivel del mar 30.10 pul    
Viento  
Velocidad del viento 4 mph ()    
Velocidad máxima del viento 9 mph    
Max Gust Speed -    
Visibilidad 6.4 Millas    
Eventos      
Averages and records for this station are not official NWS values.
T = Trace of Precipitation, MM = Missing Value Source: Averaged Metar Reports

Daily Weather History Graph

Daily Weather History Graph

Search for Another Location

Airport or City:

Astronomía

May. 17, 2018 Salida Puesta
Hora real 6:57 AM CEST 9:44 PM CEST
Crepúsculo civil 6:24 AM CEST 10:17 PM CEST
Crepúsculo náutico 5:42 AM CEST 10:59 PM CEST
Crepúsculo astronómico 4:53 AM CEST 11:48 PM CEST
Luna 8:48 AM CEST (5/17) Sin puesta de luna
Horas de luz 15h 53m
Horas de luz
14h 46m
Creciente, 5% of the Moon is Illuminated
May 17
Creciente
May 22
Cuarto creciente
May 29
Luna llena
Jun 6
Cuarto menguante
Jun 13
Nueva

Hourly Weather History & Observations

Hora (CEST) Temp. Punto de rocío Humedad Presión Visibilidad Wind Dir Velocidad del viento Velocidad de ráfagas Precip Eventos Condiciones
12:00 AM 53.6 ° F 51.8 ° F 94% 30.15 pul 6.2 mi Este 4.6 mph - N/A   Muy nublado
1:00 AM 51 ° F 49 ° F 92% 30.16 pul - ESE 5.8 mph - -  
1:00 AM 51.8 ° F 50.0 ° F 94% 30.12 pul 5.6 mi Este 3.5 mph - N/A   Parcialmente nublado
1:30 AM 51.8 ° F 51.8 ° F 100% 30.12 pul 5.6 mi ESE 3.5 mph - N/A   Nubes dispersas
2:00 AM 51 ° F 50 ° F 96% 30.15 pul - Sin viento Sin viento - -  
2:00 AM 51.8 ° F 50.0 ° F 94% 30.12 pul 4.3 mi ESE 3.5 mph - N/A   Muy nublado
2:30 AM 53.6 ° F 51.8 ° F 94% 30.12 pul 5.6 mi Este 3.5 mph - N/A   Nublado
3:00 AM 53 ° F 51 ° F 92% 30.13 pul - SE 2.3 mph - -  
3:00 AM 53.6 ° F 51.8 ° F 94% 30.12 pul 5.0 mi Variable 2.3 mph - N/A   Nublado
3:30 AM 53.6 ° F 51.8 ° F 94% 30.09 pul 5.6 mi Variable 2.3 mph - N/A   Nublado
4:00 AM 53 ° F 52 ° F 94% 30.12 pul - Este 4.6 mph - -  
4:00 AM 53.6 ° F 50.0 ° F 88% 30.09 pul 6.2 mi Este 3.5 mph - N/A   Nublado
4:30 AM 53.6 ° F 51.8 ° F 94% 30.09 pul 5.6 mi Variable 2.3 mph - N/A   Nublado
5:00 AM 53.6 ° F 51.8 ° F 94% 30.09 pul 4.3 mi Variable 1.2 mph - N/A   Nublado
5:30 AM 53.6 ° F 51.8 ° F 94% 30.09 pul 4.3 mi Variable 1.2 mph - N/A   Nublado
6:00 AM 53 ° F 52 ° F 94% 30.11 pul - ESE 2.3 mph - -  
6:00 AM 53.6 ° F 51.8 ° F 94% 30.09 pul 6.2 mi Sin viento Sin viento - N/A   Nublado
6:30 AM 53.6 ° F 51.8 ° F 94% 30.09 pul 6.2 mi Variable 1.2 mph - N/A   Nublado
7:00 AM 53.6 ° F 51.8 ° F 94% 30.09 pul 6.2 mi Variable 2.3 mph - N/A   Nublado
7:30 AM 53.6 ° F 51.8 ° F 94% 30.09 pul 6.2 mi Este 1.2 mph - N/A   Nublado
8:00 AM 54 ° F 52 ° F 92% 30.11 pul 9 mi ESE 4.6 mph - -   Nublado
8:00 AM 53.6 ° F 51.8 ° F 94% 30.09 pul 6.2 mi Variable 2.3 mph - N/A   Muy nublado
8:30 AM 55.4 ° F 51.8 ° F 88% 30.09 pul 6.2 mi Este 4.6 mph - N/A   Muy nublado
9:00 AM 55.4 ° F 51.8 ° F 88% 30.09 pul 6.2 mi Este 3.5 mph - N/A   Nubes dispersas
9:30 AM 57.2 ° F 51.8 ° F 82% 30.09 pul 6.2 mi Este 4.6 mph - N/A   Parcialmente nublado
10:00 AM 61 ° F 54 ° F 71% 30.10 pul - ESE 4.6 mph - -  
10:00 AM 59.0 ° F 51.8 ° F 77% 30.09 pul 6.2 mi Este 4.6 mph - N/A   Nubes dispersas
10:30 AM 59.0 ° F 51.8 ° F 77% 30.09 pul 6.2 mi Este 3.5 mph - N/A   Parcialmente nublado
11:00 AM 62 ° F 53 ° F 66% 30.09 pul 12 mi ENE 5.8 mph - -   Nubes dispersas
11:00 AM 59.0 ° F 53.6 ° F 82% 30.09 pul 6.2 mi ENE 4.6 mph - N/A   Parcialmente nublado
11:30 AM 59.0 ° F 53.6 ° F 82% 30.09 pul 6.2 mi Variable 5.8 mph - N/A   Parcialmente nublado
12:00 PM 63 ° F 54 ° F 65% 30.11 pul - NE 5.8 mph - -  
12:00 PM 59.0 ° F 53.6 ° F 82% 30.09 pul 6.2 mi NE 8.1 mph - N/A   Parcialmente nublado
12:30 PM 59.0 ° F 53.6 ° F 82% 30.09 pul 6.2 mi NE 8.1 mph - N/A   Parcialmente nublado
1:00 PM 63 ° F 54 ° F 65% 30.10 pul - Este 5.8 mph - -  
1:00 PM 59.0 ° F 53.6 ° F 82% 30.09 pul 6.2 mi NE 6.9 mph - N/A   Parcialmente nublado
1:30 PM 60.8 ° F 53.6 ° F 77% 30.09 pul 6.2 mi ENE 8.1 mph - N/A   Parcialmente nublado
2:00 PM 59.0 ° F 53.6 ° F 82% 30.09 pul 6.2 mi NE 9.2 mph - N/A   Parcialmente nublado
2:30 PM 59.0 ° F 53.6 ° F 82% 30.09 pul 6.2 mi NE 8.1 mph - N/A   Parcialmente nublado
3:00 PM 59.0 ° F 53.6 ° F 82% 30.09 pul 6.2 mi NE 8.1 mph - N/A   Parcialmente nublado
3:30 PM 59.0 ° F 53.6 ° F 82% 30.09 pul 6.2 mi NE 8.1 mph - N/A   Parcialmente nublado
4:00 PM 62 ° F 54 ° F 69% 30.10 pul - NE 5.8 mph - -  
4:00 PM 59.0 ° F 53.6 ° F 82% 30.09 pul 6.2 mi ENE 9.2 mph - N/A   Parcialmente nublado
4:30 PM 59.0 ° F 53.6 ° F 82% 30.09 pul 6.2 mi NE 6.9 mph - N/A   Parcialmente nublado
5:00 PM 62 ° F 53 ° F 66% 30.09 pul 16 mi ENE 4.6 mph - -   Nubes dispersas
5:00 PM 60.8 ° F 53.6 ° F 77% 30.09 pul 6.2 mi NE 6.9 mph - N/A   Parcialmente nublado
5:30 PM 59.0 ° F 53.6 ° F 82% 30.06 pul 6.2 mi NE 6.9 mph - N/A   Parcialmente nublado
6:00 PM 62 ° F 54 ° F 69% 30.09 pul - Este 6.9 mph - -  
6:00 PM 59.0 ° F 53.6 ° F 82% 30.09 pul 6.2 mi NE 5.8 mph - N/A   Parcialmente nublado
6:30 PM 60.8 ° F 53.6 ° F 77% 30.06 pul 6.2 mi NE 4.6 mph - N/A   Parcialmente nublado
7:00 PM 62 ° F 54 ° F 67% 30.08 pul - Este 4.6 mph - -  
7:00 PM 60.8 ° F 53.6 ° F 77% 30.06 pul 6.2 mi Variable 4.6 mph - N/A   Parcialmente nublado
7:30 PM 59.0 ° F 53.6 ° F 82% 30.06 pul - NE 4.6 mph - N/A   Despejado
8:00 PM 59.0 ° F 53.6 ° F 82% 30.09 pul 6.2 mi NNE 4.6 mph - N/A   Parcialmente nublado
8:30 PM 57.2 ° F 53.6 ° F 88% 30.09 pul 6.2 mi NNE 4.6 mph - N/A   Parcialmente nublado
9:00 PM 58 ° F 53 ° F 77% 30.09 pul - Este 5.8 mph - -  
9:00 PM 57.2 ° F 53.6 ° F 88% 30.09 pul 6.2 mi ENE 5.8 mph - N/A   Parcialmente nublado
9:30 PM 55.4 ° F 53.6 ° F 94% 30.09 pul 6.2 mi ENE 4.6 mph - N/A   Parcialmente nublado
10:00 PM 55.4 ° F 53.6 ° F 94% 30.09 pul 6.2 mi Este 5.8 mph - N/A   Parcialmente nublado
10:30 PM 55.4 ° F 51.8 ° F 88% 30.09 pul 6.2 mi Este 4.6 mph - N/A   Parcialmente nublado
11:00 PM 54 ° F 52 ° F 90% 30.11 pul 9 mi SE 8.1 mph - -   Nubes dispersas
11:00 PM 55.4 ° F 51.8 ° F 88% 30.09 pul 6.2 mi SE 4.6 mph - N/A   Parcialmente nublado
11:30 PM 53.6 ° F 51.8 ° F 94% 30.09 pul 6.2 mi Variable 1.2 mph - N/A   Parcialmente nublado